Las Vegas, NM

10:52 PM MDT on August 23, 2016 (GMT -0600)
Las Vegas Municipal

Weather History for KLVS - February, 2014

Change the Weather History Date:

Tuesday, February 18, 2014

  Actual Average Record
Temperature  
Mean Temperature 49 °F -  
Max Temperature 64 °F 49 °F 69 °F (1986)
Min Temperature 34 °F 23 °F 5 °F (1978)
Degree Days  
Heating Degree Days 16    
Moisture  
Dew Point 5 °F    
Average Humidity 18    
Maximum Humidity 40    
Minimum Humidity 6    
Precipitation  
Precipitation 0.00 in - - ()
Sea Level Pressure  
Sea Level Pressure 29.83 in    
Wind  
Wind Speed 12 mph (South)    
Max Wind Speed 31 mph    
Max Gust Speed 41 mph    
Visibility 10 miles    
Events      
Averages and records for this station are not official NWS values.
T = Trace of Precipitation, MM = Missing Value Source: NWS Daily Summary

Daily Weather History Graph

Daily Weather History Graph

Search for Another Location

Airport or City:

Trip Planner

Search our weather history database for the weather conditions in past years. The results will help you decide how hot, cold, wet, or windy it might be!

Date:

Astronomy

Feb. 18, 2014 Rise Set
Actual Time 6:43 AM MST 5:45 PM MST
Civil Twilight 6:17 AM MST 6:11 PM MST
Nautical Twilight 5:48 AM MST 6:41 PM MST
Astronomical Twilight 5:18 AM MST 7:10 PM MST
Moon 9:31 PM MST (2/18) 8:26 AM MST (2/18)
Length of Visible Light 11h 53m
Length of Day
11h 01m
Waning Gibbous, 87% of the Moon is Illuminated
Feb 18
Waning Gibbous
Feb 22
Last Quarter
Mar 1
New
Mar 8
First Quarter
Mar 16
Full

Hourly Weather History & Observations

Time (MST) Temp. Windchill Dew Point Humidity Pressure Visibility Wind Dir Wind Speed Gust Speed Precip Events Conditions
12:53 AM 34.0 °F 23.4 °F 12.0 °F 40% 29.91 in 10.0 mi South 17.3 mph - N/A   Clear
1:53 AM 37.0 °F 28.9 °F 10.9 °F 34% 29.86 in 10.0 mi SSE 12.7 mph - N/A   Clear
2:53 AM 39.0 °F 31.4 °F 10.0 °F 30% 29.81 in 10.0 mi South 12.7 mph - N/A   Clear
3:53 AM 39.0 °F 30.3 °F 10.9 °F 32% 29.80 in 10.0 mi SSW 16.1 mph - N/A   Clear
4:53 AM 41.0 °F 32.8 °F 12.9 °F 32% 29.81 in 10.0 mi SW 16.1 mph - N/A   Clear
5:53 AM 44.1 °F 39.0 °F 14.0 °F 30% 29.81 in 10.0 mi WSW 9.2 mph - N/A   Clear
6:53 AM 44.1 °F 42.5 °F 12.0 °F 27% 29.83 in 10.0 mi Variable 3.5 mph - N/A   Clear
7:53 AM 51.1 °F - 10.0 °F 19% 29.81 in 10.0 mi NW 12.7 mph 19.6 mph N/A   Clear
8:53 AM 54.0 °F - 9.0 °F 17% 29.82 in 10.0 mi NW 24.2 mph 34.5 mph N/A   Clear
9:53 AM 59.0 °F - 1.9 °F 10% 29.83 in 10.0 mi WNW 31.1 mph 41.4 mph N/A   Clear
10:53 AM 57.9 °F - 3.9 °F 11% 29.87 in 10.0 mi Calm Calm - N/A   Clear
11:53 AM 60.1 °F - -0.0 °F 9% 29.83 in 10.0 mi NE 9.2 mph - N/A   Clear
12:53 PM 64.0 °F - -0.9 °F 7% 29.82 in 10.0 mi Variable 5.8 mph - N/A   Clear
1:53 PM 63.0 °F - -4.0 °F 7% 29.81 in 10.0 mi Variable 6.9 mph - N/A   Clear
2:53 PM 63.0 °F - -8.0 °F 6% 29.80 in 10.0 mi East 6.9 mph 17.3 mph N/A   Clear
3:53 PM 62.1 °F - -5.1 °F 7% 29.80 in 10.0 mi Calm Calm - N/A   Clear
4:53 PM 59.0 °F - 3.0 °F 11% 29.82 in 10.0 mi SSW 9.2 mph - N/A   Clear
5:53 PM 50.0 °F - 3.0 °F 15% 29.86 in 10.0 mi SSE 9.2 mph - N/A   Clear
6:53 PM 53.1 °F - 3.9 °F 14% 29.86 in 10.0 mi East 4.6 mph - N/A   Clear
7:53 PM 51.1 °F - 3.9 °F 15% 29.86 in 10.0 mi ENE 4.6 mph - N/A   Clear
8:53 PM 48.9 °F - -0.9 °F 13% 29.85 in 10.0 mi WNW 4.6 mph - N/A   Clear
9:53 PM 45.0 °F 41.2 °F 3.0 °F 18% 29.85 in 10.0 mi WSW 6.9 mph - N/A   Clear
10:53 PM 44.1 °F 40.8 °F 1.9 °F 17% 29.84 in 10.0 mi ENE 5.8 mph - N/A   Clear
11:53 PM 46.9 °F - 1.0 °F 15% 29.80 in 10.0 mi NE 5.8 mph - N/A   Clear